* Astronomy

Members Login
Username 
 
Password 
    Remember Me  
Post Info TOPIC: Asteroid 2012 KU12


L

Posts: 131433
Date:
Asteroid 2012 KU12
Permalink  
 


Orbital elements:
2012 KU12                                           PHA, Earth MOID = 0.0395 AU
Epoch 2012 Mar. 14.0 TT = JDT 2456000.5                 MPC
M  21.66287              (2000.0)            P               Q
n   0.46569066     Peri.   74.10052     -0.59782517     -0.79238841
a   1.6484320      Node    53.25175     +0.66529867     -0.57488686
e   0.4932528      Incl.    8.71073     +0.44719431     -0.20402379
P   2.12           H   21.6           G   0.15           U   8

MPEC 2012 - K40



__________________
Page 1 of 1  sorted by
 
Quick Reply

Please log in to post quick replies.



Create your own FREE Forum
Report Abuse
Powered by ActiveBoard